[[{"header":{"parameterUnit":"m.s-1","parameterCategory":1,"la1":30.2991,"la2":30.254,"lo1":-89.0895,"lo2":-89.0444,"dy":0.0017,"dx":0.0017,"nx":28,"ny":28,"refTime":"2025-09-01T09:00:00:Z","depth":0,"parameterNumber":2,"parameterNumberName":"U-component_of_WINDS"},"data":[0,0,0,0,0,0,0,0,0,0,0,0,0,0,0,0,0,0,0,0,0,0,0,0,0,0,0,0,0,0,0,0,0,0,0,0,0,0,0,0,0,0,0,0,0,0,0,0,0,0,0,0,0,0,0,0,0,0,-2.9728,-2.9728,0,-2.9709,-2.9709,-2.9708,-2.9624,-2.9622,-2.962,-2.9618,-2.9601,-2.9602,-2.9604,0,0,0,0,0,0,0,0,0,0,0,0,0,-2.9695,-2.9696,-2.9728,-2.9728,-2.9727,-2.9709,-2.9709,-2.9708,-2.9624,-2.9622,-2.9619,-2.9617,-2.9601,-2.9602,-2.9604,0,0,0,0,0,0,0,0,0,0,0,0,0,-2.9696,-2.9696,-2.9728,-2.9683,-2.9679,-2.9709,-2.9709,-2.9708,-2.9625,-2.9622,-2.9619,-2.9616,-2.96,-2.9602,-2.9604,-2.9677,0,0,-2.961,-2.9611,0,0,0,0,0,0,0,0,-2.9696,-2.9697,-2.969,-2.9686,-2.9681,-2.9666,-2.9691,-2.9698,-2.9625,-2.9645,-2.9618,-2.9614,-2.9625,-2.9625,-2.9628,-2.9676,-2.9675,-2.9611,-2.9612,-2.9613,-2.9613,0,0,0,0,0,0,0,-2.9696,-2.9698,-2.972,-2.969,-2.9685,-2.9665,-2.9662,-2.9692,-2.9652,-2.9643,-2.9637,-2.9636,-2.9622,-2.9626,-2.9627,-2.9675,-2.9611,-2.9612,-2.9614,-2.9615,-2.9784,-2.9787,0,0,0,0,0,0,-2.9702,-2.9698,-2.9721,-2.972,-2.9682,-2.9668,-2.9665,-2.9674,-2.9652,-2.9645,-2.9638,-2.9632,-2.9624,-2.9625,-2.9626,-2.9711,-2.9613,-2.9615,-2.9616,-2.9781,-2.9785,-2.9789,0,0,0,0,0,0,-2.9702,-2.9705,-2.9722,-2.9707,-2.9708,-2.9672,-2.9683,-2.9675,-2.9679,-2.9648,-2.9641,-2.9649,-2.9622,-2.9623,-2.9665,-2.9709,-2.9616,-2.9618,-2.9777,-2.9782,-2.9787,-2.9881,0,0,0,0,0,0,-2.9701,-2.9705,-2.9731,-2.9708,-2.9709,-2.976,-2.9685,-2.9677,-2.9682,-2.9674,-2.9656,-2.9651,-2.9619,-2.9662,-2.9667,-2.9711,-2.9619,-2.9773,-2.978,-2.9785,-2.9874,-2.9889,-2.9901,0,0,0,0,0,-2.97,-2.9758,-2.9733,-2.9736,-2.9741,-2.9763,-2.9763,-2.9725,-2.9686,-2.9713,-2.9694,-2.9651,-2.9704,-2.9667,-2.9672,-2.9717,-2.977,-2.9778,-2.9785,-2.9868,-2.9886,-2.9901,0,0,0,0,0,0,-2.9787,-2.9755,-2.9726,-2.9778,-2.9774,-2.9748,-2.9781,-2.9745,-2.9752,-2.9744,-2.9698,-2.9695,-2.9744,-2.9734,-2.9695,-2.9787,-2.973,-2.9739,-2.9792,-2.9808,-2.9822,-2.9823,-2.9621,0,0,0,0,0,-2.9813,-2.9832,-2.9803,-2.9852,-2.9852,-2.9817,-2.9825,-2.9797,-2.9791,-2.9788,-2.9772,-2.9769,-2.9784,-2.9796,-2.9808,-2.9872,-2.9869,-2.9906,-2.9919,-2.9931,-2.9939,-2.9974,-2.9991,-2.9813,-2.9813,-2.9812,0,0,-2.9865,-2.985,-2.9865,-2.987,-2.9863,-2.9886,-2.9816,-2.9842,-2.9859,-2.9793,-2.9831,-2.982,-2.9813,-2.9867,-2.989,-2.9861,-2.9987,-2.994,-2.9949,-2.9951,-2.9984,-3.0001,-3.0016,-2.9818,-2.9817,-2.9816,0,0,-2.9973,-2.9963,-3.0003,-2.9999,-2.9989,-2.9966,-2.9976,-2.9957,-2.9946,-2.9985,-2.9936,-2.9956,-2.9984,-2.9982,-2.9984,-3.0094,-3.0057,-3.01,-3.0171,-3.0207,-3.0221,-3.0233,-3.0274,-3.0289,-3.0108,-3.0108,-3.0109,0,-3.004,-3.0071,-3.0029,-3.006,-3.0064,-3.0005,-3.0047,-3.0044,-3.004,-3.0046,-3.0013,-3.0048,-3.0039,-3.0093,-3.012,-3.0123,-3.0135,-3.0102,-3.0222,-3.0234,-3.0245,-3.0283,-3.0299,-3.0114,-3.0113,-3.0113,-3.0112,0,-3.0154,-3.0177,-3.0212,-3.0209,-3.0218,-3.0254,-3.0219,-3.0233,-3.0205,-3.0186,-3.0227,-3.0215,-3.0225,-3.0236,-3.0208,-3.0287,-3.0269,-3.023,-3.0171,-3.0268,-3.0303,-3.0318,-3.0122,-3.012,-3.0118,-3.0117,0,0,-3.0315,-3.0291,-3.0304,-3.0303,-3.029,-3.0308,-3.0342,-3.0352,-3.0366,-3.0366,-3.0395,-3.0421,-3.0385,-3.0389,-3.0361,-3.0391,-3.0482,-3.0348,-3.0348,-3.0375,-3.057,-3.06,-3.0618,-3.0457,-3.0459,-3.0461,-3.0571,0,-3.0419,-3.0475,-3.044,-3.0503,-3.0525,-3.0471,-3.0501,-3.0498,-3.0482,-3.0499,-3.0481,-3.0501,-3.0452,-3.0454,-3.0482,-3.0465,-3.0521,-3.0456,-3.0485,-3.0487,-3.0489,-3.0636,-3.0668,-3.0772,-3.0585,-3.0587,-3.0589,0,-3.0547,-3.0553,-3.0618,-3.0603,-3.0611,-3.0639,-3.0646,-3.0663,-3.0659,-3.0645,-3.065,-3.0615,-3.065,-3.0593,-3.0642,-3.0599,-3.0609,-3.0603,-3.0606,-3.0607,-3.0544,-3.0643,-3.0804,-3.082,-3.061,-3.0608,-3.0607,0,-3.0659,-3.0684,-3.0726,-3.0727,-3.071,-3.0731,-3.0725,-3.0718,-3.0727,-3.0734,-3.074,-3.0751,-3.0758,-3.0769,-3.0739,-3.0699,-3.0792,-3.0732,-3.0784,-3.0785,-3.0805,-3.0805,-3.0971,-3.0811,-3.0811,-3.081,-3.081,0,-3.0779,-3.0822,-3.0777,-3.0803,-3.085,-3.081,-3.0858,-3.0846,-3.0841,-3.0866,-3.0819,-3.0844,-3.0802,-3.0823,-3.08,-3.0845,-3.0848,-3.0839,-3.0833,-3.0844,-3.0845,-3.085,-3.0842,-3.0815,-3.0814,-3.0813,-3.0812,0,-3.0912,-3.0884,-3.0927,-3.0908,-3.0904,-3.094,-3.0924,-3.0949,-3.093,-3.0962,-3.0968,-3.0939,-3.0962,-3.0933,-3.0952,-3.0937,-3.0999,-3.0981,-3.1,-3.0996,-3.1049,-3.1045,-3.1225,-3.1248,-3.1073,-3.1074,-3.1076,0,-3.0991,-3.1022,-3.1007,-3.102,-3.1017,-3.1038,-3.1047,-3.101,-3.1022,-3.1021,-3.1047,-3.1065,-3.1078,-3.1117,-3.1099,-3.1114,-3.1097,-3.1159,-3.1099,-3.111,-3.11,-3.1098,-3.1102,-3.1172,-3.1174,-3.1175,-3.1177,0,-3.1134,-3.1119,-3.1134,-3.1145,-3.1157,-3.1164,-3.1167,-3.1181,-3.1142,-3.1158,-3.1181,-3.1191,-3.1211,-3.1231,-3.1242,-3.1237,-3.1202,-3.1196,-3.1209,-3.1221,-3.1231,-3.1228,-3.1035,-3.1192,-3.119,-3.1189,-3.1188,-3.1188,-3.1243,-3.1269,-3.1263,-3.1282,-3.1281,-3.1286,-3.1309,-3.1294,-3.1311,-3.1325,-3.1302,-3.1331,-3.1329,-3.134,-3.134,-3.1363,-3.1336,-3.1355,-3.1359,-3.1365,-3.1374,-3.1227,-3.1365,-3.1364,-3.1364,-3.1363,-3.1363,0,-3.1385,-3.1379,-3.1396,-3.1403,-3.1419,-3.1383,-3.1386,-3.1402,-3.1427,-3.1428,-3.1442,-3.1469,-3.1488,-3.1473,-3.1489,-3.1511,-3.1496,-3.1517,-3.1515,-3.1515,-3.1396,-3.1383,-3.153,-3.153,-3.1529,-3.1529,-3.1529,-3.1529,-3.146,-3.1504,-3.1489,-3.1532,-3.1526,-3.1553,-3.1558,-3.1563,-3.1564,-3.1596,-3.1612,-3.1601,-3.1596,-3.1612,-3.163,-3.1625,-3.1634,-3.1661,-3.1651,-3.154,-3.1523,-3.1508,-3.1496,-3.1663,-3.1664,-3.1769,-3.177,-3.177]},{"header":{"parameterUnit":"m.s-1","parameterCategory":1,"la1":30.2991,"la2":30.254,"lo1":-89.0895,"lo2":-89.0444,"dy":0.0017,"dx":0.0017,"nx":28,"ny":28,"refTime":"2025-09-01T09:00:00:Z","depth":0,"parameterNumber":3,"parameterNumberName":"V-component_of_WINDS"},"data":[0,0,0,0,0,0,0,0,0,0,0,0,0,0,0,0,0,0,0,0,0,0,0,0,0,0,0,0,0,0,0,0,0,0,0,0,0,0,0,0,0,0,0,0,0,0,0,0,0,0,0,0,0,0,0,0,0,0,1.4183,1.4183,0,1.4209,1.4209,1.4209,1.4249,1.425,1.425,1.4251,1.4275,1.4275,1.4275,0,0,0,0,0,0,0,0,0,0,0,0,0,1.4165,1.4165,1.4183,1.4183,1.4183,1.4209,1.4209,1.4209,1.4249,1.425,1.425,1.4251,1.4275,1.4275,1.4275,0,0,0,0,0,0,0,0,0,0,0,0,0,1.418,1.4165,1.4183,1.4206,1.4208,1.4209,1.4209,1.421,1.4249,1.425,1.4251,1.4252,1.4275,1.4275,1.4275,1.4254,0,0,1.4275,1.4275,0,0,0,0,0,0,0,0,1.4179,1.418,1.4202,1.4205,1.4207,1.4227,1.4212,1.4224,1.4248,1.4233,1.4251,1.4252,1.4258,1.426,1.4262,1.4255,1.4256,1.4275,1.4275,1.4275,1.4275,0,0,0,0,0,0,0,1.4178,1.4179,1.4193,1.4203,1.4206,1.4215,1.4218,1.4214,1.4239,1.4235,1.4238,1.424,1.426,1.4262,1.4263,1.4257,1.4275,1.4275,1.4275,1.4275,1.4232,1.4231,0,0,0,0,0,0,1.4174,1.4178,1.4192,1.4194,1.4195,1.4214,1.4218,1.4219,1.424,1.4244,1.4239,1.4242,1.4261,1.4263,1.4264,1.4239,1.4275,1.4275,1.4275,1.4233,1.4232,1.423,0,0,0,0,0,0,1.4173,1.4175,1.4191,1.4187,1.419,1.4213,1.4215,1.4219,1.4222,1.4243,1.4247,1.4237,1.4262,1.4264,1.4256,1.424,1.4275,1.4275,1.4234,1.4233,1.4231,1.4189,0,0,0,0,0,0,1.4172,1.4174,1.4167,1.4187,1.419,1.4183,1.4214,1.4219,1.4222,1.4226,1.4242,1.4246,1.4263,1.4256,1.4256,1.4241,1.4275,1.4236,1.4233,1.4231,1.4191,1.4186,1.4181,0,0,0,0,0,1.4172,1.4154,1.4166,1.4168,1.4181,1.4182,1.4184,1.4205,1.422,1.4213,1.4226,1.4245,1.4242,1.4255,1.4255,1.424,1.4237,1.4234,1.4232,1.4194,1.4187,1.4181,0,0,0,0,0,0,1.4131,1.4157,1.4171,1.4159,1.4168,1.4189,1.418,1.4197,1.4201,1.4205,1.423,1.4233,1.4222,1.423,1.4243,1.4219,1.4242,1.424,1.4214,1.4207,1.4202,1.4199,1.4275,0,0,0,0,0,1.4121,1.412,1.4143,1.413,1.4134,1.4156,1.4157,1.4173,1.4183,1.4187,1.42,1.4208,1.4209,1.4209,1.4211,1.4194,1.4197,1.4184,1.4178,1.4174,1.417,1.416,1.4153,1.4222,1.4222,1.4222,0,0,1.4099,1.4113,1.4111,1.4122,1.4131,1.4128,1.4159,1.4155,1.4153,1.4186,1.4179,1.4189,1.42,1.4187,1.4181,1.4193,1.4152,1.417,1.4167,1.4165,1.4156,1.415,1.4144,1.422,1.422,1.4221,0,0,1.4058,1.4069,1.4059,1.4068,1.4081,1.4096,1.4093,1.4112,1.412,1.4113,1.4137,1.4135,1.4137,1.4143,1.4146,1.4108,1.4125,1.4108,1.4079,1.4068,1.4063,1.4058,1.4041,1.4036,1.4105,1.4105,1.4105,0,1.4028,1.4027,1.4051,1.4046,1.4049,1.408,1.4069,1.4076,1.4089,1.409,1.4104,1.4105,1.4115,1.4103,1.4093,1.4096,1.4093,1.4105,1.4062,1.4057,1.4053,1.4038,1.4032,1.4103,1.4103,1.4103,1.4103,0,1.3989,1.3987,1.3978,1.3989,1.3992,1.3984,1.4006,1.4006,1.4022,1.4035,1.4027,1.404,1.4044,1.4043,1.4058,1.4033,1.4039,1.4057,1.408,1.4044,1.4029,1.4024,1.4099,1.41,1.4101,1.4101,0,0,1.3921,1.3947,1.3943,1.3948,1.3965,1.3964,1.3957,1.3962,1.396,1.3969,1.3962,1.3962,1.3979,1.3983,1.3999,1.399,1.3956,1.4009,1.4009,1.3996,1.3925,1.3909,1.3902,1.3968,1.3967,1.3967,1.3923,0,1.3881,1.387,1.3892,1.3876,1.3873,1.3903,1.3897,1.3906,1.3918,1.3917,1.3931,1.393,1.3953,1.3955,1.3948,1.3961,1.3941,1.3965,1.396,1.3959,1.3953,1.3895,1.3879,1.3837,1.3918,1.3917,1.3917,0,1.3832,1.3838,1.3821,1.3839,1.3838,1.3832,1.3838,1.3838,1.3849,1.3858,1.3862,1.3882,1.3875,1.39,1.3889,1.3905,1.3905,1.3911,1.391,1.3907,1.3933,1.3889,1.3825,1.3817,1.3909,1.3909,1.391,0,1.378,1.3784,1.3774,1.3779,1.3799,1.3794,1.3802,1.3814,1.3816,1.3821,1.3821,1.3826,1.3827,1.383,1.3849,1.3866,1.3836,1.3862,1.3841,1.384,1.3831,1.3831,1.3763,1.3836,1.3836,1.3836,1.3836,0,1.3731,1.3719,1.3751,1.3745,1.3732,1.3758,1.3744,1.3755,1.3766,1.3761,1.3788,1.3782,1.381,1.3808,1.3823,1.3811,1.3812,1.3818,1.3822,1.3814,1.3813,1.3811,1.3814,1.3835,1.3835,1.3835,1.3835,0,1.367,1.3691,1.3682,1.3703,1.3708,1.3697,1.3714,1.3708,1.3723,1.3717,1.3717,1.3739,1.3738,1.3758,1.3761,1.3771,1.3751,1.3761,1.3746,1.3749,1.3725,1.3726,1.3652,1.3642,1.3724,1.3723,1.3723,0,1.3635,1.3627,1.3647,1.3646,1.3653,1.3651,1.3653,1.3678,1.3678,1.369,1.3682,1.3683,1.3685,1.3681,1.3697,1.3699,1.3707,1.3681,1.3707,1.3699,1.3703,1.3702,1.37,1.3675,1.3674,1.3673,1.3672,0,1.3571,1.3582,1.3584,1.3588,1.359,1.3595,1.3601,1.3599,1.3626,1.3625,1.3624,1.3626,1.3628,1.3628,1.3633,1.3641,1.366,1.3664,1.3659,1.3649,1.3639,1.3641,1.3728,1.3665,1.3666,1.3666,1.3667,1.3667,1.352,1.3513,1.3526,1.3526,1.3534,1.3539,1.3534,1.3549,1.3549,1.3553,1.3568,1.3564,1.3575,1.3583,1.3589,1.3586,1.3598,1.3591,1.3589,1.3586,1.358,1.3643,1.3587,1.3587,1.3588,1.3588,1.3588,0,1.3455,1.3465,1.3465,1.3473,1.3473,1.3494,1.3502,1.35,1.3496,1.3505,1.3506,1.3504,1.3504,1.352,1.3522,1.3516,1.3524,1.3515,1.3514,1.3515,1.357,1.3573,1.3508,1.3508,1.3508,1.3508,1.3508,1.3508,1.342,1.3409,1.3421,1.3413,1.3423,1.342,1.3422,1.3427,1.3434,1.3431,1.3431,1.3442,1.3453,1.3456,1.3456,1.3461,1.3459,1.3446,1.3453,1.3504,1.3511,1.3519,1.3521,1.3446,1.3446,1.3397,1.3397,1.3397]}]]